CZ-2D DEB

Satellite information

Favourite Embed

Satellite Type and Status

DEBRISIN ORBIT

Key statistics

Satellite CZ-2D DEB at a glance.

Uptime

4823

Days in orbit

Revolutions

≈ 14.4

Per day

Orbit

SSO

Sun Synchronous Orbit

Inclination

98.0

Latest

Satellite identification and parameters

Extended collection of information and parameters for CZ-2D DEB.

Object identification

Identified? True

Debris? True

Object name: CZ-2D DEB

International designator: 2012-052C

Object number (NORAD): 43403

Object ID (CCSDS): 43403

Country: PEOPLES REPUBLIC OF CHINA (PRC)

Current information (Y/N): Y

RCS size: SMALL

Orbital parameters

Period: 99.892 minutes

Inclination: 98.025 deg

SMA: 7131.492 km

Apoapsis: 890.741 km

Periapsis: 615.972 km

RAAN: 83.1743 deg

Eccentricy: 0.01926447

Argument of periapsis: 147.2923 deg

Mean anomaly: 214.0371 deg

Mean motion: 14.41558229 rev/day

Mean motion (dot): 0.00006378 rev/day2

B* drag term: 0.0015814093 1/REarth

Two-line elements (TLE)

Creation date: Dec. 12, 2025, 10:14 a.m.

Reference frame: TEME

Reference center: EARTH

Epoch: Dec. 12, 2025, 2:10 a.m. UTC

TLE line 0: 0 CZ-2D DEB

TLE line 1: 1 43403U 12052C 25346.09044674 .00006378 00000-0 15814-2 0 9993

TLE line 2: 2 43403 98.0250 83.1743 0192645 147.2923 214.0371 14.41558229629333

Live tracking on map

Real-time ground track for satellite CZ-2D DEB.

In-orbit conjunctions

A list of the most updated potential collisions computed for object CZ-2D DEB.

Target Orbit TCA Probability of collision Miss distance Type
CZ-6A R/B SSO 2025-09-01 03:27:21 0.0001032053 427.0 (m) ROCKET BODY
CZ-6A DEB LEO 2025-01-27 22:13:24 0.002579132 93.0 (m) DEBRIS
COSMOS 2251 DEB LEO 2024-11-09 23:28:14 0.0001334439 196.0 (m) DEBRIS
METEOR 2-4 LEO 2024-08-02 21:49:29 0.0001726622 486.0 (m) PAYLOAD

Associated space launch

CZ-2D DEB was lifted into orbit during the mission ‘Long March 2D | VRSS-1’, on board a Long March 2D space rocket.

The launch took place on Sept. 29, 2012, 4:12 a.m. from Launch Area 94 (SLS-2 / 603).

For more information about the launch, click the button.

Launch to space Long March 2D | VRSS-1
Long March 2D | VRSS-1

Agency: N/A

Status: Launch Successful

Launch date: Sept. 29, 2012, 4:12 a.m. UTC

Rocket: Long March 2D

Launch pad: Launch Area 94 (SLS-2 / 603)

Location: Jiuquan Satellite Launch Center, People's Republic of China

...

Latest news about this satellite

There are no fresh news available about this satellite. Check back as we update our databases every day.


Newsletter sign-up

Weekly statistics, charts and insights to help you stay on top of the space industry.